Washington, PA

12:32 AM EDT on June 29, 2017 (GMT -0400)
Washington County

Weather History for KAFJ - August, 2014

Change the Weather History Date:

Sunday, August 10, 2014

  Actual Average Record
Temperature  
Mean Temperature 68 °F -  
Max Temperature 82 °F 78 °F 89 °F (2005)
Min Temperature 55 °F 58 °F 48 °F (1996)
Cooling Degree Days 4    
Growing Degree Days 18 (Base 50)    
Moisture  
Dew Point 62 °F    
Average Humidity 76    
Maximum Humidity 100    
Minimum Humidity 54    
Precipitation  
Precipitation 0.00 in - - ()
Sea Level Pressure  
Sea Level Pressure 30.09 in    
Wind  
Wind Speed 2 mph (ESE)    
Max Wind Speed 12 mph    
Max Gust Speed -    
Visibility 8 miles    
Events      
Averages and records for this station are not official NWS values.
T = Trace of Precipitation, MM = Missing Value Source: NWS Daily Summary

Daily Weather History Graph

Daily Weather History Graph

Search for Another Location

Airport or City:

Trip Planner

Search our weather history database for the weather conditions in past years. The results will help you decide how hot, cold, wet, or windy it might be!

Date:

Astronomy

Aug. 10, 2014 Rise Set
Actual Time 6:27 AM EDT 8:24 PM EDT
Civil Twilight 5:58 AM EDT 8:54 PM EDT
Nautical Twilight 5:22 AM EDT 9:29 PM EDT
Astronomical Twilight 4:43 AM EDT 10:08 PM EDT
Moon 8:10 PM EDT (8/10) 6:18 AM EDT (8/10)
Length of Visible Light 14h 55m
Length of Day
13h 56m
Full, 100% of the Moon is Illuminated
Aug 10
Full
Aug 10
Full
Aug 17
Last Quarter
Aug 25
New
Sep 2
First Quarter

Hourly Weather History & Observations

Time (EDT) Temp. Heat Index Dew Point Humidity Pressure Visibility Wind Dir Wind Speed Gust Speed Precip Events Conditions
12:15 AM 62.6 °F - 60.8 °F 94% 30.10 in 6.0 mi Calm Calm - N/A   Clear
12:35 AM 62.6 °F - 60.8 °F 94% 30.10 in 6.0 mi Calm Calm - N/A   Clear
12:55 AM 60.8 °F - 59.0 °F 94% 30.10 in 8.0 mi Calm Calm - N/A   Clear
1:15 AM 62.6 °F - 60.8 °F 94% 30.11 in 10.0 mi Calm Calm - N/A   Clear
1:35 AM 62.6 °F - 59.0 °F 88% 30.10 in 10.0 mi Calm Calm - N/A   Clear
1:55 AM 60.8 °F - 60.8 °F 100% 30.11 in 8.0 mi Calm Calm - N/A   Mostly Cloudy
2:15 AM 62.6 °F - 60.8 °F 94% 30.10 in 7.0 mi Calm Calm - N/A   Scattered Clouds
2:35 AM 60.8 °F - 60.8 °F 100% 30.10 in 4.0 mi Calm Calm - N/A   Clear
2:55 AM 60.8 °F - 59.0 °F 94% 30.10 in 3.0 mi Calm Calm - N/A   Clear
3:15 AM 60.8 °F - 59.0 °F 94% 30.10 in 3.0 mi Calm Calm - N/A   Clear
3:35 AM 60.8 °F - 57.2 °F 88% 30.10 in 3.0 mi Calm Calm - N/A   Clear
3:55 AM 59.0 °F - 57.2 °F 94% 30.09 in 1.5 mi Calm Calm - N/A   Clear
4:15 AM 59.0 °F - 57.2 °F 94% 30.09 in 0.5 mi Calm Calm - N/A   Mostly Cloudy
4:35 AM 57.2 °F - 57.2 °F 100% 30.09 in 0.5 mi Calm Calm - N/A   Mostly Cloudy
5:15 AM 57.2 °F - 55.4 °F 94% 30.10 in 1.2 mi Calm Calm - N/A   Scattered Clouds
5:35 AM 55.4 °F - 55.4 °F 100% 30.10 in 0.5 mi Calm Calm - N/A   Mostly Cloudy
5:55 AM 55.4 °F - 55.4 °F 100% 30.11 in 0.2 mi Calm Calm - N/A   Mostly Cloudy
6:15 AM 55.4 °F - 55.4 °F 100% 30.11 in 4.0 mi Calm Calm - N/A   Partly Cloudy
6:35 AM 55.4 °F - 53.6 °F 94% 30.11 in 0.5 mi Calm Calm - N/A   Unknown
7:15 AM 57.2 °F - 55.4 °F 94% 30.12 in 0.5 mi Calm Calm - N/A   Mostly Cloudy
7:35 AM 60.8 °F - 59.0 °F 94% 30.12 in 1.8 mi Calm Calm - N/A   Clear
7:55 AM 62.6 °F - 62.6 °F 100% 30.12 in 3.0 mi Calm Calm - N/A   Clear
8:15 AM 64.4 °F - 62.6 °F 94% 30.12 in 6.0 mi Calm Calm - N/A   Clear
8:35 AM 64.4 °F - 62.6 °F 94% 30.12 in 7.0 mi Calm Calm - N/A   Clear
8:55 AM 66.2 °F - 62.6 °F 88% 30.13 in 10.0 mi Calm Calm - N/A   Clear
9:15 AM 69.8 °F - 62.6 °F 78% 30.13 in 10.0 mi Calm Calm - N/A   Clear
9:35 AM 71.6 °F - 62.6 °F 73% 30.12 in 10.0 mi East 4.6 mph - N/A   Clear
9:55 AM 73.4 °F - 62.6 °F 69% 30.12 in 10.0 mi East 5.8 mph - N/A   Clear
10:15 AM 73.4 °F - 62.6 °F 69% 30.12 in 10.0 mi East 8.1 mph - N/A   Clear
10:35 AM 73.4 °F - 62.6 °F 69% 30.12 in 10.0 mi SE 5.8 mph - N/A   Clear
10:55 AM 73.4 °F - 62.6 °F 69% 30.12 in 10.0 mi East 10.4 mph - N/A   Clear
11:15 AM 75.2 °F - 62.6 °F 65% 30.12 in 10.0 mi East 9.2 mph - N/A   Clear
11:35 AM 75.2 °F - 62.6 °F 65% 30.13 in 10.0 mi SE 6.9 mph - N/A   Clear
11:55 AM 75.2 °F - 64.4 °F 69% 30.13 in 10.0 mi East 6.9 mph - N/A   Clear
12:15 PM 75.2 °F - 64.4 °F 69% 30.12 in 10.0 mi ESE 4.6 mph - N/A   Clear
12:35 PM 78.8 °F - 64.4 °F 61% 30.12 in 9.0 mi East 9.2 mph - N/A   Clear
12:55 PM 78.8 °F - 64.4 °F 61% 30.12 in 10.0 mi East 5.8 mph - N/A   Clear
1:15 PM 78.8 °F - 64.4 °F 61% 30.11 in 10.0 mi East 5.8 mph - N/A   Partly Cloudy
1:35 PM 78.8 °F - 64.4 °F 61% 30.11 in 10.0 mi East 10.4 mph - N/A   Scattered Clouds
1:55 PM 80.6 °F 82.3 °F 64.4 °F 58% 30.10 in 10.0 mi East 10.4 mph - N/A   Scattered Clouds
2:15 PM 80.6 °F 82.3 °F 64.4 °F 58% 30.10 in 10.0 mi ESE 8.1 mph - N/A   Scattered Clouds
2:35 PM 80.6 °F 82.3 °F 64.4 °F 58% 30.09 in 10.0 mi East 11.5 mph - N/A   Mostly Cloudy
2:55 PM 80.6 °F 82.7 °F 66.2 °F 61% 30.08 in 10.0 mi SSE 8.1 mph - N/A   Mostly Cloudy
3:15 PM 80.6 °F 82.7 °F 66.2 °F 61% 30.08 in 10.0 mi East 5.8 mph - N/A   Partly Cloudy
3:35 PM 80.6 °F 82.3 °F 64.4 °F 58% 30.08 in 10.0 mi SE 6.9 mph - N/A   Scattered Clouds
3:55 PM 82.4 °F 84.6 °F 66.2 °F 58% 30.07 in 10.0 mi SE 9.2 mph - N/A   Mostly Cloudy
4:15 PM 80.6 °F 82.3 °F 64.4 °F 58% 30.07 in 10.0 mi SSE 6.9 mph - N/A   Partly Cloudy
4:35 PM 82.4 °F 83.9 °F 64.4 °F 54% 30.07 in 10.0 mi East 3.5 mph - N/A   Clear
4:55 PM 80.6 °F 82.3 °F 64.4 °F 58% 30.07 in 10.0 mi SE 4.6 mph - N/A   Partly Cloudy
5:15 PM 80.6 °F 82.3 °F 64.4 °F 58% 30.06 in 10.0 mi ESE 4.6 mph - N/A   Scattered Clouds
5:35 PM 80.6 °F 82.3 °F 64.4 °F 58% 30.06 in 10.0 mi Calm Calm - N/A   Partly Cloudy
5:55 PM 82.4 °F 83.9 °F 64.4 °F 54% 30.05 in 10.0 mi East 6.9 mph - N/A   Clear
6:35 PM 80.6 °F 82.7 °F 66.2 °F 61% 30.04 in 10.0 mi East 5.8 mph - N/A   Clear
6:55 PM 80.6 °F 82.3 °F 64.4 °F 58% 30.04 in 10.0 mi East 4.6 mph - N/A   Clear
7:15 PM 78.8 °F - 64.4 °F 61% 30.05 in 10.0 mi East 5.8 mph - N/A   Partly Cloudy
7:35 PM 78.8 °F - 64.4 °F 61% 30.04 in 10.0 mi East 4.6 mph - N/A   Mostly Cloudy
7:55 PM 77.0 °F - 64.4 °F 65% 30.04 in 10.0 mi Calm Calm - N/A   Partly Cloudy
8:15 PM 75.2 °F - 66.2 °F 73% 30.04 in 10.0 mi East 3.5 mph - N/A   Mostly Cloudy
8:35 PM 73.4 °F - 66.2 °F 78% 30.04 in 10.0 mi East 3.5 mph - N/A   Mostly Cloudy
8:55 PM 73.4 °F - 64.4 °F 73% 30.05 in 10.0 mi SSE 4.6 mph - N/A   Mostly Cloudy
9:15 PM 75.2 °F - 64.4 °F 69% 30.05 in 10.0 mi SSE 5.8 mph - N/A   Overcast
9:35 PM 75.2 °F - 64.4 °F 69% 30.05 in 10.0 mi SSE 5.8 mph - N/A   Mostly Cloudy
9:55 PM 73.4 °F - 64.4 °F 73% 30.06 in 10.0 mi SSE 6.9 mph - N/A   Mostly Cloudy
10:15 PM 73.4 °F - 64.4 °F 73% 30.06 in 10.0 mi SE 6.9 mph - N/A   Mostly Cloudy
10:35 PM 73.4 °F - 64.4 °F 73% 30.07 in 10.0 mi SSE 3.5 mph - N/A   Mostly Cloudy
10:55 PM 71.6 °F - 64.4 °F 78% 30.07 in 10.0 mi Calm Calm - N/A   Overcast
11:15 PM 71.6 °F - 64.4 °F 78% 30.07 in 10.0 mi Calm Calm - N/A   Mostly Cloudy
11:35 PM 69.8 °F - 64.4 °F 83% 30.07 in 10.0 mi South 3.5 mph - N/A   Partly Cloudy
11:55 PM 69.8 °F - 64.4 °F 83% 30.07 in 10.0 mi SSE 5.8 mph - N/A   Clear